Regional Weather Roundup
Issued by NWS

Home | Current Version | Previous Version | Graphics & Text | Print | Product List | Glossary On
Versions: 1 2 3 4 5 6 7 8 9 10 11 12 13 14 15 16 17 18 19 20 21 22 23 24 25 26 27 28 29 30 31 32 33 34 35 36 37 38 39 40 41 42 43 44 45 46 47 48 49 50
130
ASUS45 KBOI 280810
RWRID

IDAHO REGIONAL WEATHER ROUNDUP
NATIONAL WEATHER SERVICE BOISE ID
200 AM MDT TUE MAR 28 2017

NOTE: "FAIR" INDICATES FEW OR NO CLOUDS BELOW 12000 FEET
WITH NO SIGNIFICANT WEATHER AND/OR OBSTRUCTIONS TO VISIBILITY

IDZ012-014-280900-
SOUTHWEST IDAHO


CITY           SKY/WX    TMP DP  RH WIND       PRES   REMARKS
BOISE          CLEAR     39  32  76 NW8       30.19R WCI  33
CALDWELL       CLEAR     38  33  82 W9        30.23R WCI  31
MOUNTAIN HOME  CLEAR     38  37  93 NW8       30.18R WCI  32
$$

IDZ016-017-280900-
SOUTHCENTRAL IDAHO


CITY           SKY/WX    TMP DP  RH WIND       PRES   REMARKS
BURLEY         CLEAR     37  27  67 SW10      30.12R WCI  30
JEROME         CLEAR     35  30  82 SW12      30.12R WCI  27
TWIN FALLS     CLEAR     35  27  72 SW17      30.13S WCI  25
$$

IDZ019>023-280900-
SOUTHEAST IDAHO


CITY           SKY/WX    TMP DP  RH WIND       PRES   REMARKS
IDAHO FALLS    CLOUDY    36  35  96 W7        30.07S WCI  30
POCATELLO      CLOUDY    36  33  89 SW15      30.10F WCI  27
REXBURG        CLOUDY    36  36 100 S3        30.06S
$$

IDZ006-010-011-018-031-032-280900-
CENTRAL IDAHO MOUNTAINS


CITY           SKY/WX    TMP DP  RH WIND       PRES   REMARKS
MCCALL         PTCLDY    29  24  82 N6        30.16R WCI  23
HAILEY         CLEAR     34  25  69 NW8       30.11R WCI  27
STANLEY          N/A     24  21  88 CALM      30.15S
SALMON         MOCLDY    32  21  64 SE3       30.17R
CHALLIS        CLEAR     32  22  66 N6        30.15R WCI  26
$$

IDZ002-004-006-007-026-280900-
NORTHERN IDAHO


CITY           SKY/WX    TMP DP  RH WIND       PRES   REMARKS
LEWISTON       MOCLDY    44  30  57 CALM      30.23R
LOWELL           N/A     40  38  93 CALM      30.28S
COEUR D`ALENE  PTCLDY    39  35  86 S7        30.18R WCI  34
MULLAN PASS    CLOUDY    27  27 100 VRB5      30.11S FOG     WCI  22
$$




USA.gov is the U.S. government's official web portal to all federal, state and local government web resources and services.